Regional Weather Roundup
Issued by NWS

Home | Current Version | Previous Version | Graphics & Text | Print | Product List | Glossary On
Versions: 1 2 3 4 5 6 7 8 9 10 11 12 13 14 15 16 17 18 19 20 21 22 23 24 25 26 27 28 29 30 31 32 33 34 35 36 37 38 39 40 41 42 43 44 45 46 47 48 49 50
000
ASUS43 KTOP 240708
RWRKS

WEATHER ROUNDUP FOR KANSAS
NATIONAL WEATHER SERVICE GOODLAND KS
200 AM CDT THU APR 24 2014

NOTE:  "FAIR" INDICATES FEW OR NO CLOUDS BELOW 12,000 FEET WITH NO
SIGNIFICANT WEATHER AND/OR OBSTRUCTIONS TO VISIBILITY.

KSZ001>006-013>018-027>032-041>047-240800-
NORTHWEST KANSAS

CITY           SKY/WX    TMP DP  RH WIND       PRES   REMARKS
GOODLAND       CLOUDY    52  26  36 NW26G33   29.83S
HAYS           CLOUDY    54  50  87 N26G35    29.69R
HILL CITY      LGT RAIN  54  48  80 N10       29.73S
RUSSELL        HVY RAIN  55  53  93 N18       29.66R
$$

KSZ061>065-074>080-084>089-240800-
SOUTHWEST KANSAS

CITY           SKY/WX    TMP DP  RH WIND       PRES   REMARKS
DODGE CITY     TSTM      52  48  86 N26G43    29.73R FOG
ELKHART          N/A     52  31  44 NW21        N/A
GARDEN CITY    CLOUDY    57  32  38 N31G48    29.76R
GREAT BEND     CLOUDY    66  52  59 SW15G22   29.62S
LIBERAL        MOCLDY    57  34  41 N41G51    29.71R
PRATT          CLEAR     63  55  77 S22G32    29.59S
$$

KSZ066>073-081>083-090>101-240800-
SOUTHEAST KANSAS

CITY           SKY/WX    TMP DP  RH WIND       PRES   REMARKS
CHANUTE        CLOUDY    71  55  56 S30G37    29.64F
COFFEYVILLE    CLOUDY    70  56  61 S21G29    29.67F
HUTCHINSON     PTCLDY    67  55  65 S26G36    29.57S
MEDICINE LODGE   N/A     64  58  80 SE9       29.57F
NEWTON         MOCLDY    66  52  59 S25G37    29.61R
PARSONS        LGT RAIN  69  56  62 S14G22    29.69F
WICHITA INTL   MOCLDY    68  57  68 S20G32    29.58F
WICHITA JABRA  MOCLDY    68  56  65 S28G37    29.58F
WICHITA MCCONL MOCLDY    68  60  75 SE23G32   29.60F
WINFIELD       MOCLDY    67  59  75 S20G29    29.62F
$$

KSZ007>012-019>026-033>040-048>060-102>105-240800-
NORTHEAST KANSAS

CITY           SKY/WX    TMP DP  RH WIND       PRES   REMARKS
CONCORDIA      LGT RAIN  58  51  78 NW13      29.66R
EMPORIA        CLOUDY    71  55  56 S26G38    29.55F
LAWRENCE       CLOUDY    69  49  48 SE25G32   29.57F
MANHATTAN      MOCLDY    73  55  53 S17G24    29.50R
OLATHE IND     MOCLDY    67  47  48 SE20G28   29.64F
OLATHE EXE     MOCLDY    66  46  48 SE15G28   29.65F
SALINA         PTCLDY    69  51  52 NW22G30   29.62R
TOPEKA BILLARD CLOUDY    72  53  51 SE16G28   29.54F
TOPEKA FORBES  CLOUDY    71  53  52 S26G39    29.53F
$$



USA.gov is the U.S. government's official web portal to all federal, state and local government web resources and services.